TimeEDT,TemperatureF,Dew PointF,Humidity,Sea Level PressureIn,VisibilityMPH,Wind Direction,Wind SpeedMPH,Gust SpeedMPH,PrecipitationIn,Events,Conditions,WindDirDegrees,DateUTC
12:53 AM,34.0,30.9,89,30.22,4.0,Calm,Calm,-,N/A,,Clear,0,2012-10-09 04:53:00
1:03 AM,33.8,32.0,93,30.20,1.0,Calm,Calm,-,N/A,,Mist,0,2012-10-09 05:03:00
1:10 AM,33.8,32.0,93,30.21,0.2,Calm,Calm,-,N/A,Fog,Fog,0,2012-10-09 05:10:00
1:53 AM,34.0,33.1,96,30.22,0.2,Calm,Calm,-,N/A,Fog,Fog,0,2012-10-09 05:53:00
2:25 AM,32.0,30.2,93,30.21,1.2,Calm,Calm,-,N/A,,Mostly Cloudy,0,2012-10-09 06:25:00
2:30 AM,32.0,30.2,93,30.21,2.5,Calm,Calm,-,N/A,,Scattered Clouds,0,2012-10-09 06:30:00
2:45 AM,33.8,30.2,87,30.21,1.5,Calm,Calm,-,N/A,,Mostly Cloudy,0,2012-10-09 06:45:00
2:48 AM,33.8,32.0,93,30.21,0.8,Calm,Calm,-,N/A,,Mist,0,2012-10-09 06:48:00
2:53 AM,33.1,32.0,96,30.22,0.2,Calm,Calm,-,N/A,Fog,Fog,0,2012-10-09 06:53:00
3:53 AM,34.0,33.1,96,30.21,0.2,Calm,Calm,-,N/A,Fog,Fog,0,2012-10-09 07:53:00
4:53 AM,33.1,32.0,96,30.21,0.2,Calm,Calm,-,N/A,Fog,Fog,0,2012-10-09 08:53:00
5:53 AM,33.1,32.0,96,30.22,0.2,Calm,Calm,-,N/A,Fog,Fog,0,2012-10-09 09:53:00
6:53 AM,33.1,32.0,96,30.23,0.2,Calm,Calm,-,N/A,Fog,Fog,0,2012-10-09 10:53:00
7:53 AM,33.1,32.0,96,30.23,0.2,Calm,Calm,-,N/A,Fog,Fog,0,2012-10-09 11:53:00
8:53 AM,34.0,34.0,100,30.25,0.2,Calm,Calm,-,N/A,Fog,Fog,0,2012-10-09 12:53:00
9:53 AM,36.0,35.1,97,30.25,0.2,ESE,4.6,-,N/A,Fog,Fog,120,2012-10-09 13:53:00
10:48 AM,39.2,39.2,100,30.20,1.2,Variable,4.6,-,N/A,,Overcast,0,2012-10-09 14:48:00
10:53 AM,39.9,39.0,97,30.22,1.8,Calm,Calm,-,N/A,,Overcast,0,2012-10-09 14:53:00
11:00 AM,39.2,39.2,100,30.20,2.5,Variable,3.5,-,N/A,,Overcast,0,2012-10-09 15:00:00
11:07 AM,41.0,39.2,93,30.19,4.0,Variable,3.5,-,N/A,,Mostly Cloudy,0,2012-10-09 15:07:00
11:22 AM,42.8,41.0,93,30.19,10.0,Calm,Calm,-,N/A,,Partly Cloudy,0,2012-10-09 15:22:00
11:53 AM,48.9,39.9,71,30.19,10.0,SW,3.5,-,N/A,,Clear,220,2012-10-09 15:53:00
12:53 PM,52.0,37.0,57,30.18,10.0,Variable,3.5,-,N/A,,Scattered Clouds,0,2012-10-09 16:53:00
1:53 PM,55.0,36.0,49,30.13,10.0,Variable,5.8,-,N/A,,Clear,0,2012-10-09 17:53:00
2:53 PM,57.0,34.0,42,30.10,10.0,Variable,5.8,-,N/A,,Clear,0,2012-10-09 18:53:00
3:53 PM,59.0,34.0,39,30.08,10.0,SE,8.1,-,N/A,,Clear,140,2012-10-09 19:53:00
4:53 PM,60.1,35.1,39,30.06,10.0,Variable,4.6,-,N/A,,Clear,0,2012-10-09 20:53:00
5:53 PM,57.9,35.1,42,30.05,10.0,South,6.9,-,N/A,,Clear,190,2012-10-09 21:53:00
6:53 PM,54.0,36.0,51,30.05,10.0,South,3.5,-,N/A,,Clear,180,2012-10-09 22:53:00
7:53 PM,48.9,37.0,64,30.05,10.0,SSE,3.5,-,N/A,,Clear,150,2012-10-09 23:53:00
8:53 PM,50.0,37.0,61,30.04,10.0,South,3.5,-,N/A,,Clear,190,2012-10-10 00:53:00
9:53 PM,50.0,37.9,63,30.04,10.0,SSW,5.8,-,N/A,,Clear,200,2012-10-10 01:53:00
10:53 PM,48.0,39.0,71,30.04,10.0,Calm,Calm,-,N/A,,Clear,0,2012-10-10 02:53:00
11:53 PM,45.0,39.0,80,30.03,10.0,Calm,Calm,-,N/A,,Clear,0,2012-10-10 03:53:00